Home > Weather > Ganja > Past weeks

Flag for Azerbaijan Past Weather in Ganja, Azerbaijan — Yesterday and Last 2 Weeks

Now
84 °F

Partly sunny.


Feels Like: 82 °F
Forecast: 61 / 82 °F
Wind: 10 mph from Northwest

Location: Gyanca Airport

Current Time: May 31, 2016 at 3:58:57 PM

Latest Report: May 31, 2016 at 3:00 PM


Visibility: N/A

Pressure: 29.80 "Hg

Humidity: 23%

Dew Point: 43 °F

Location of GanjaLocation

Past Weather in Ganja — Graph

°F

Ganja Temperature Yesterday

Maximum temperature yesterday: 82 °F (at 2:00 PM)
Minimum temperature yesterday: 61 °F (at 3:00 AM)
Average temperature yesterday: 71 °F

High & Low Weather Summary for the Past Weeks

 TemperatureHumidityPressure
High86 °F (May 27, 4:00 PM)100% (May 19, 2:00 AM)30.12 "Hg (May 19, 2:00 AM)
Low55 °F (May 22, 4:00 AM)25% (May 27, 4:00 PM)29.68 "Hg (May 24, 1:00 PM)
Average69 °F63%29.87 "Hg
* Reported May 16 2:00 PM — May 31 2:30 PM, Ganja, Weather by CustomWeather, © 2016

Note: Actual official high and low records may vary slightly from our data, if they occured in-between our weather recording intervals... More about our weather records

Advertising

Ganja Weather History for the Previous 24 Hours

Scroll right to see more
 ConditionsComfort  
Time TempWeatherWind HumidityBarometerVisibility
2:30 PM
Tue, May 31
82 °FPartly sunny.10 mph25%29.80 "HgN/A
1:30 PM81 °FPartly sunny.14 mph26%29.80 "HgN/A
1:00 PM79 °FPartly sunny.13 mph30%29.80 "HgN/A
12:30 PM79 °FPartly sunny.14 mph32%29.80 "HgN/A
12:00 PM79 °FPartly sunny.13 mph34%29.80 "HgN/A
11:30 AM77 °FPartly sunny.13 mph34%29.83 "HgN/A
11:00 AM75 °FPartly sunny.13 mph34%29.83 "HgN/A
10:30 AM75 °FPartly sunny.13 mph36%29.83 "HgN/A
10:00 AM73 °FPartly sunny.13 mph41%29.83 "HgN/A
9:30 AM70 °FPartly sunny.14 mph46%29.83 "HgN/A
9:00 AM70 °FPartly sunny.14 mph46%29.83 "HgN/A
8:30 AM68 °FPartly sunny.16 mph53%29.83 "HgN/A
7:30 AM66 °FPartly sunny.17 mph52%29.83 "HgN/A
7:00 AM66 °FPartly sunny.15 mph56%29.83 "HgN/A
6:30 AM64 °FPartly sunny.13 mph60%29.83 "HgN/A
6:00 AM63 °FPassing clouds.9 mph59%29.83 "HgN/A
5:30 AM63 °FPassing clouds.12 mph59%29.83 "HgN/A
5:00 AM64 °FPassing clouds.16 mph56%29.80 "HgN/A
4:30 AM64 °FPassing clouds.13 mph56%29.83 "HgN/A
4:00 AM64 °FPassing clouds.9 mph56%29.83 "HgN/A
3:30 AM64 °FPassing clouds.14 mph56%29.80 "HgN/A
3:00 AM66 °FPassing clouds.15 mph52%29.80 "HgN/A
2:30 AM66 °FPassing clouds.15 mph52%29.80 "HgN/A
2:00 AM66 °FPassing clouds.15 mph52%29.80 "HgN/A
1:30 AM66 °FPassing clouds.15 mph52%29.80 "HgN/A
1:00 AM68 °FPassing clouds.16 mph53%29.80 "HgN/A
12:30 AM70 °FPassing clouds.16 mph50%29.80 "HgN/A
12:00 AM70 °FPassing clouds.18 mph50%29.80 "HgN/A
11:30 PM
Mon, May 30
70 °FPassing clouds.17 mph50%29.80 "HgN/A
11:00 PM72 °FPassing clouds.15 mph47%29.80 "HgN/A
10:30 PM72 °FPassing clouds.17 mph44%29.80 "HgN/A
10:00 PM73 °FPassing clouds.14 mph44%29.80 "HgN/A
9:30 PM70 °FPassing clouds.6 mph50%29.80 "HgN/A
8:30 PM73 °FPartly sunny.9 mph41%29.77 "HgN/A
8:00 PM75 °FPartly sunny.13 mph36%29.77 "HgN/A
7:30 PM75 °FPartly sunny.16 mph36%29.77 "HgN/A
7:00 PM77 °FPartly sunny.16 mph34%29.77 "HgN/A
6:30 PM77 °FPartly sunny.7 mph44%29.77 "HgN/A
5:30 PM75 °FPartly sunny.6 mph47%29.74 "HgN/A
4:30 PM77 °FPartly sunny.9 mph44%29.74 "HgN/A
4:00 PM79 °FPartly sunny.14 mph39%29.74 "HgN/A
3:00 PM79 °FScattered clouds.14 mph34%29.71 "HgN/A
Weather by CustomWeather, © 2016

See weather overviewHow to use our weather pages